RH
40 47 54 60 62 66 72 72 68 62 51 43 54 78 94 99 100 98 95 98 98 99 100 90 75 68 66 62 55 48 44 41 37 35 35 36 34 27 22 22 21 18 16 18 21 26 34 40 36 29 24 22 23 25 28 31 36 44 56 67 79 91 97
48 64 63 64 68 70 73 78 81 81 73 60 57 75 94 100 101 99 97 98 98 97 99 94 80 72 71 69 63 55 49 45 41 37 34 34 33 27 24 24 24 20 17 17 19 21 28 38 40 34 28 23 22 24 26 28 32 38 48 58 68 79 91
31 64 79 74 73 77 79 81 86 91 90 81 72 78 93 99 100 101 98 98 99 96 98 97 84 75 76 76 71 62 54 49 45 41 37 34 32 28 26 28 27 23 20 18 18 18 23 33 40 38 31 26 23 22 23 25 29 34 42 51 59 68 81
9 36 70 84 82 84 88 88 92 96 96 96 92 89 96 99 99 101 100 98 100 97 97 99 89 78 78 82 79 70 62 54 48 44 40 36 34 31 30 31 29 26 23 21 20 19 20 27 37 40 34 28 25 23 21 22 25 30 36 44 52 59 69
6 8 38 76 89 89 95 97 98 101 100 100 101 99 99 100 99 101 100 99 102 100 98 100 95 82 79 83 84 78 70 61 53 48 44 39 36 34 34 35 32 29 26 24 23 21 20 23 33 40 37 30 26 23 21 19 21 25 31 38 46 52 59
10 3 15 57 88 93 99 103 100 101 102 101 101 100 100 100 99 101 101 100 102 101 99 101 98 88 80 81 84 82 78 70 60 53 49 44 40 36 36 36 34 31 28 27 25 23 21 22 29 38 39 32 27 25 22 20 18 20 26 32 39 46 52
12 7 7 42 85 98 98 102 100 99 101 101 101 100 100 100 100 101 101 101 102 101 100 100 100 94 83 78 80 82 82 78 69 60 54 49 45 40 37 37 35 32 30 29 28 26 23 22 25 36 41 34 28 26 24 21 18 17 20 26 33 40 46
14 8 3 26 71 97 100 100 101 100 99 101 101 100 100 100 100 101 101 101 101 100 100 100 101 97 88 80 78 80 84 85 78 68 59 54 51 46 41 39 37 34 33 33 31 28 26 23 24 33 41 37 29 27 26 23 19 17 17 20 26 33 40
12 9 5 13 43 80 101 102 99 100 100 100 101 100 100 100 100 101 102 101 100 100 100 100 100 99 94 86 81 80 83 88 86 77 66 59 55 51 46 43 39 37 36 36 34 31 29 26 24 30 38 38 31 28 27 24 20 17 16 17 22 27 34
10 8 7 10 23 53 90 104 99 99 101 100 100 100 100 100 100 100 103 102 99 100 101 101 100 101 98 92 85 82 83 88 89 85 75 65 59 55 51 47 42 39 39 38 36 34 32 27 25 28 34 37 33 28 27 26 20 17 15 16 19 23 28
8 7 6 14 20 35 74 103 101 98 101 100 100 100 99 100 100 101 103 101 99 100 102 102 102 101 101 96 89 83 82 85 89 89 84 73 63 59 55 51 45 42 42 41 38 37 35 30 28 28 31 35 35 29 28 27 22 17 16 15 17 22 26
6 6 4 13 19 29 66 100 102 98 101 100 99 101 99 99 100 101 102 100 99 101 102 102 102 101 101 98 91 85 83 85 90 93 91 81 70 64 60 55 50 47 45 43 40 39 36 33 32 31 30 34 35 31 29 29 24 19 16 16 16 21 25
5 6 5 9 16 33 69 99 102 99 101 100 99 100 99 99 100 101 102 101 101 103 102 101 101 101 100 99 94 88 86 89 93 95 94 87 77 69 65 60 56 53 49 46 43 40 38 38 38 36 33 33 35 35 32 30 27 21 17 17 17 19 24
5 5 6 9 20 46 80 100 100 99 101 100 99 100 99 100 99 99 101 103 103 103 102 101 101 101 100 98 94 92 91 94 96 97 96 91 83 74 69 65 60 57 55 52 47 42 43 46 45 41 37 33 34 38 36 31 29 24 19 18 17 18 23
5 5 6 11 32 64 92 101 100 100 100 99 100 100 100 100 98 94 95 99 102 103 102 101 100 101 101 97 92 92 96 100 100 99 97 94 88 80 74 68 64 62 62 61 55 50 53 58 53 44 39 34 35 41 40 34 32 28 22 20 18 18 22
6 6 7 19 51 85 100 100 100 100 100 99 100 100 100 101 98 92 91 94 98 102 102 101 100 101 102 98 91 90 98 103 103 101 99 96 92 85 78 72 68 68 70 69 64 59 61 65 59 48 40 35 39 48 46 38 36 32 25 22 20 18 20
7 11 21 44 76 99 103 100 100 100 99 100 100 99 101 101 98 94 92 94 97 101 102 101 100 101 102 98 92 90 97 103 103 102 101 99 96 91 83 75 72 73 75 74 69 65 67 70 63 51 43 40 47 54 50 43 42 37 28 24 21 19 19
12 23 48 77 95 101 100 100 100 99 100 100 99 100 101 100 99 96 94 95 99 102 103 101 100 101 102 98 91 91 98 103 102 101 101 101 99 95 86 78 75 77 79 78 73 69 73 74 67 56 50 48 53 56 52 50 49 41 32 27 23 21 20
26 43 73 95 101 99 100 100 99 99 100 100 99 101 100 100 100 99 97 98 100 101 102 102 101 101 102 97 91 93 101 103 101 100 101 101 101 96 89 82 79 81 82 81 77 75 76 75 69 62 56 54 56 57 54 55 55 48 41 35 28 23 22
53 72 92 100 100 100 100 100 99 100 100 100 100 100 100 100 100 100 100 101 101 101 100 101 101 102 103 99 93 95 101 102 101 100 100 102 100 94 89 86 85 87 89 87 84 82 81 81 78 72 65 61 62 60 56 57 59 57 53 47 38 31 27
81 94 100 100 99 100 100 99 100 100 99 100 100 99 100 101 99 99 100 102 103 102 99 100 102 102 103 102 96 96 101 102 100 100 101 101 99 95 94 95 96 97 98 95 90 86 85 87 85 78 70 66 65 62 58 58 62 65 65 61 52 44 36
97 100 100 100 100 100 100 100 100 100 100 100 100 99 100 100 98 97 100 103 103 102 99 101 102 102 103 103 98 97 101 102 100 100 100 101 101 100 100 102 101 101 102 99 94 89 87 88 87 80 73 70 69 69 67 65 68 74 75 72 67 60 50
101 100 100 100 100 99 100 100 100 100 100 100 100 100 100 100 99 98 101 103 102 101 100 101 103 102 103 104 101 99 101 100 100 100 100 101 103 102 101 101 100 100 100 100 98 94 91 92 92 89 86 83 83 84 81 74 75 79 79 77 77 74 65
100 100 100 100 100 100 100 100 99 100 100 99 100 100 99 100 100 100 101 101 100 100 101 102 103 102 102 102 101 100 100 100 100 100 100 101 103 102 100 100 101 100 100 101 101 97 94 95 97 97 98 98 98 98 93 83 78 80 82 80 79 78 74
100 100 100 100 100 100 100 100 100 100 100 100 100 100 100 100 100 100 100 100 100 101 103 103 103 102 101 100 100 100 100 100 100 100 100 101 101 100 100 100 100 100 100 100 100 97 94 96 97 98 100 102 102 102 97 87 79 80 85 86 81 75 72
100 100 100 100 100 100 100 100 100 100 100 100 100 100 100 100 100 100 100 100 100 102 104 103 102 101 100 100 100 100 100 100 100 100 100 100 100 100 100 100 100 100 100 100 99 97 96 96 95 96 97 98 97 95 94 90 86 85 89 91 88 80 75
100 100 100 100 100 100 100 100 100 100 100 100 100 100 100 100 100 100 100 100 101 102 103 101 100 100 100 100 100 100 100 100 100 100 100 100 100 100 100 100 100 99 99 100 101 100 98 96 94 94 94 92 90 89 89 91 92 92 91 90 89 87 86
100 100 100 100 100 100 100 100 100 99 100 100 100 100 100 100 100 100 100 101 101 101 101 101 99 100 100 100 100 100 100 100 100 100 100 100 100 100 100 100 100 99 98 101 103 102 100 96 93 92 91 89 88 89 90 90 92 95 96 92 86 85 88
100 100 100 100 100 100 100 100 100 100 100 100 100 100 100 100 100 100 101 103 102 101 101 100 99 100 100 99 99 99 100 100 100 100 100 100 100 100 100 100 101 100 98 100 103 102 99 95 92 93 94 95 94 93 93 93 93 95 97 96 90 83 82
100 100 100 100 100 100 100 100 100 100 100 100 100 100 100 99 100 101 103 103 102 101 100 100 100 100 100 99 99 99 99 100 100 100 100 100 100 100 99 100 101 99 96 98 101 102 99 95 93 93 95 98 100 99 97 97 98 97 97 96 94 88 82
100 100 100 100 100 100 100 100 100 100 100 100 100 100 100 100 101 102 102 101 100 100 100 100 100 100 100 101 101 100 99 100 100 100 100 100 99 99 100 100 100 97 95 96 99 100 99 97 95 94 96 99 102 103 100 99 101 102 100 96 94 93 88
100 100 100 100 100 100 100 100 100 100 100 100 100 100 100 100 100 101 101 100 100 100 100 100 100 100 100 101 102 101 100 100 100 100 100 99 99 99 100 101 100 97 95 95 97 99 100 99 98 98 99 100 103 104 101 99 99 102 103 101 97 94 93
100 100 100 100 100 100 100 100 100 100 100 100 100 100 100 100 100 100 100 99 100 100 100 100 100 100 100 100 101 101 101 100 100 100 100 100 99 100 100 101 100 98 95 94 94 97 100 102 102 101 100 100 101 102 101 100 99 98 100 102 100 96 95
100 100 100 100 100 100 100 100 100 100 100 100 100 100 100 100 100 100 100 100 100 100 100 100 100 100 100 100 101 101 100 100 100 100 100 101 100 99 100 100 101 101 99 96 96 97 99 101 102 101 101 100 101 101 102 103 102 98 95 96 97 96 96
100 100 100 100 100 100 100 100 100 100 100 100 100 100 100 100 100 100 100 100 99 99 100 100 100 100 100 100 100 100 100 100 100 100 100 100 100 100 100 101 102 102 101 100 101 100 99 99 100 102 102 101 100 101 102 103 104 102 98 95 93 93 94
99 100 100 100 100 100 100 100 100 100 100 100 100 100 100 100 100 100 101 101 100 99 100 100 101 101 101 101 101 101 101 100 100 100 100 100 100 100 100 101 102 101 102 103 103 102 99 100 102 104 103 100 98 98 99 101 102 103 103 101 97 94 93
Wind_Speed
54 55 55 54 54 55 55 55 55 53 53 53 52 51 50 51 55 57 55 50 45 42 42 43 44 44 44 45 46 45 45 44 42 41 40 39 38 36 34 32 31 30 27 26 26 26 25 26 27 28 29 30 30 30 31 32 34 35 39 47 53 53 51
50 53 55 55 54 54 54 54 54 53 53 53 52 51 50 51 53 56 55 50 46 43 42 43 43 44 45 45 46 46 46 45 43 41 40 39 38 36 34 33 32 30 27 26 26 26 25 25 26 26 28 29 30 30 30 30 33 35 36 41 49 53 53
50 50 53 55 54 53 53 53 53 52 52 52 52 51 51 51 53 55 54 50 46 43 43 44 43 44 44 45 47 47 47 46 44 43 41 40 38 37 35 33 32 31 28 26 26 25 24 24 25 25 27 28 29 29 29 29 31 33 35 37 43 50 53
52 50 52 54 54 53 52 52 51 51 50 50 50 50 50 52 53 54 52 49 45 43 43 44 43 43 44 45 47 48 47 47 46 44 42 41 39 37 35 34 33 31 29 27 26 26 25 25 24 24 25 27 28 29 29 28 28 30 33 36 38 44 51
55 52 51 53 53 52 52 51 49 49 48 48 48 49 49 51 54 54 52 48 45 42 42 44 44 43 43 44 47 48 48 47 46 44 43 42 40 38 37 35 34 32 30 28 27 26 26 25 24 24 24 25 26 27 28 28 27 28 30 34 36 39 45
59 54 51 51 53 51 50 50 48 47 46 46 47 48 49 51 53 53 51 47 44 42 41 43 44 43 43 44 47 48 48 47 45 44 44 43 42 40 38 37 35 34 32 29 27 27 26 25 25 24 24 25 25 26 27 27 27 26 27 31 35 37 40
60 56 50 49 51 51 49 49 48 46 44 45 47 47 49 50 51 51 50 46 43 41 40 42 43 43 43 44 46 47 47 46 45 44 44 43 43 41 40 38 36 35 33 30 28 28 27 26 25 24 23 24 24 24 25 26 26 26 26 28 32 36 38
61 57 51 48 49 50 48 48 47 46 44 44 45 47 48 48 48 49 48 44 41 40 39 40 42 43 42 43 45 45 45 45 45 45 44 44 43 42 41 39 37 36 34 31 29 29 28 26 25 24 23 24 24 23 24 25 26 25 25 26 28 33 37
62 59 53 49 48 48 48 48 47 45 43 43 44 45 46 45 45 47 47 43 40 39 37 38 41 42 41 41 43 43 43 44 45 45 45 44 43 42 41 39 38 37 35 32 31 30 28 27 26 25 24 23 23 23 23 23 24 24 24 25 26 29 34
62 60 54 51 49 47 46 47 47 44 42 42 42 43 42 42 44 46 45 41 39 37 36 37 39 41 40 40 41 42 42 43 45 45 45 44 43 42 41 40 39 37 35 33 32 30 29 28 26 25 24 24 23 23 23 22 22 22 23 24 25 27 30
60 58 54 51 51 48 45 45 46 44 42 41 40 40 39 40 42 44 42 39 38 36 35 36 38 40 40 40 41 42 42 42 43 44 44 43 43 42 41 40 40 38 36 34 32 31 30 28 27 26 25 24 23 23 22 21 21 21 22 23 23 25 28
57 56 52 50 50 48 45 44 44 44 41 39 38 38 38 39 41 42 40 38 37 34 34 35 37 39 39 39 40 40 40 40 41 42 42 43 43 42 41 40 39 37 36 34 32 31 30 28 27 27 26 25 24 23 21 21 21 21 21 21 22 23 26
54 53 50 49 48 46 44 43 43 42 39 37 36 35 37 40 42 41 39 38 35 34 34 35 36 37 38 37 37 39 39 40 40 40 40 41 42 42 41 39 38 37 36 34 33 31 29 28 27 27 27 25 24 22 21 21 21 21 20 20 20 20 22
51 49 48 47 45 44 43 43 43 41 37 36 34 33 37 41 43 42 39 36 34 34 34 34 35 36 36 35 35 37 38 38 37 37 39 40 42 42 40 38 37 36 35 33 32 30 29 28 27 27 27 26 25 23 21 21 21 21 19 18 19 19 20
48 47 46 44 42 41 41 42 41 38 35 34 33 33 37 42 44 43 39 35 33 33 33 33 34 34 34 34 34 35 36 36 36 36 38 39 41 40 39 38 37 35 33 31 30 29 28 27 27 28 28 27 26 23 21 20 20 20 19 18 18 17 17
46 45 44 42 39 39 40 40 38 35 33 32 32 34 39 42 44 44 40 35 31 31 31 31 33 33 33 33 33 33 34 35 35 36 37 38 38 38 38 37 35 33 32 30 29 29 29 28 28 29 29 28 26 22 21 21 20 20 20 18 17 16 15
43 42 41 39 37 37 37 36 34 32 31 31 32 36 40 42 43 43 41 35 29 29 30 30 31 32 32 32 32 31 31 34 35 36 36 35 35 35 37 36 34 32 31 30 29 29 29 29 29 30 29 28 25 23 22 21 19 20 20 19 17 16 15
40 39 38 37 36 34 33 32 30 29 29 30 32 37 40 41 41 42 40 33 28 28 29 29 29 30 31 30 29 29 31 33 34 35 34 33 32 34 35 33 32 32 31 29 30 30 30 30 30 30 29 28 26 24 22 21 20 20 20 18 17 17 15
38 37 35 34 34 32 29 28 27 26 27 29 33 38 40 40 41 40 37 31 27 27 29 29 28 29 29 28 28 29 31 33 34 34 31 30 31 32 31 30 30 30 30 29 29 30 30 30 30 30 30 29 27 25 23 21 20 19 18 17 18 17 16
36 35 33 31 30 29 26 24 24 23 25 29 35 37 38 40 40 37 32 28 27 27 28 28 27 27 27 27 28 29 31 32 32 31 29 29 30 28 25 26 29 29 29 28 28 28 29 29 29 29 29 28 28 27 24 21 19 18 16 16 17 17 17
34 33 32 29 27 25 23 22 21 21 24 30 35 36 36 39 38 33 29 28 28 28 28 26 25 25 25 26 28 29 30 31 30 28 27 27 25 21 22 26 28 27 27 28 27 28 28 29 29 29 29 29 29 28 24 19 17 16 16 15 16 16 17
32 31 29 26 24 22 20 19 19 20 25 31 34 35 35 36 35 30 28 28 28 27 26 24 23 23 24 26 28 29 29 28 27 26 26 24 21 22 25 27 26 26 27 27 26 27 28 28 29 29 29 29 28 26 22 18 15 14 15 15 15 15 17
29 28 26 24 22 20 17 17 18 21 26 31 33 33 33 33 31 28 27 27 26 25 24 23 22 23 24 26 28 28 28 27 26 26 24 22 23 25 26 26 25 26 27 26 26 26 26 26 27 28 28 28 26 24 22 19 16 15 16 15 15 16 17
26 24 22 21 20 18 15 16 19 23 27 30 31 31 31 30 29 27 27 26 24 23 23 22 21 22 23 26 27 27 27 26 26 24 22 22 25 25 24 23 24 25 25 25 26 26 26 26 26 26 27 26 25 24 23 22 20 19 18 18 18 18 18
23 21 19 18 18 16 14 16 20 24 27 29 29 29 29 28 27 26 25 24 22 22 21 21 21 22 24 26 27 26 26 25 25 24 23 24 25 23 21 21 22 23 24 25 26 26 26 26 26 25 25 25 25 25 24 24 23 22 20 20 20 19 17
21 19 17 16 16 15 14 17 21 24 26 27 28 28 27 26 25 24 24 22 21 21 21 21 22 24 25 26 25 25 25 24 24 25 27 26 24 22 22 22 23 23 25 25 26 26 26 26 25 24 24 25 26 26 25 25 25 24 22 21 20 18 16
18 17 16 14 13 14 15 18 21 23 25 26 26 25 24 23 22 22 22 22 21 20 20 21 22 24 25 24 23 24 25 25 25 28 30 27 25 24 25 26 26 26 26 26 25 25 25 25 24 23 24 25 25 25 24 25 25 25 23 23 22 19 17
15 14 14 13 12 13 15 18 20 22 22 22 22 21 21 20 20 20 20 20 19 18 19 22 24 25 27 27 26 25 26 27 29 31 30 28 28 29 30 30 30 29 28 26 25 24 24 23 21 20 21 22 22 23 23 24 25 24 24 24 23 21 20
14 12 11 11 11 12 15 17 18 19 19 19 19 19 18 18 19 19 19 18 18 18 20 24 26 27 28 29 30 29 29 30 32 33 32 31 32 34 36 35 34 32 30 29 27 26 26 24 20 18 18 18 20 21 21 22 23 23 23 24 24 23 23
14 12 9 8 10 12 13 14 15 16 16 17 17 16 16 16 17 17 17 18 19 20 23 25 26 27 28 30 31 32 32 34 36 35 35 35 37 39 39 39 37 35 32 30 29 29 28 26 21 19 19 19 19 20 19 20 21 21 22 23 24 23 24
12 10 7 7 9 11 11 12 13 13 14 15 14 13 13 14 14 15 16 18 19 21 23 23 24 27 29 30 31 32 34 36 38 38 38 38 40 41 41 39 38 36 33 32 32 31 29 26 23 21 21 21 21 20 20 20 21 21 23 23 23 23 24
8 6 5 6 8 9 9 10 10 11 11 11 11 11 12 12 13 14 15 16 18 20 21 23 24 27 29 31 32 33 34 37 39 40 40 41 42 41 40 39 38 37 35 34 33 31 29 27 24 22 22 22 22 23 22 22 22 22 22 23 23 23 23
6 5 5 5 7 7 8 8 8 8 9 9 8 9 10 11 12 13 14 15 17 19 20 22 24 26 27 28 29 30 32 35 38 40 41 43 43 42 41 40 39 37 36 35 33 31 30 28 26 25 25 24 24 24 24 24 24 23 22 23 23 23 23
3 4 5 5 5 6 6 7 7 7 7 8 8 9 10 12 14 16 17 18 18 19 19 21 22 23 24 25 25 26 27 30 34 37 39 40 41 41 40 39 38 37 37 36 34 32 29 28 27 27 26 24 23 23 23 24 24 23 23 24 23 23 22
1 3 4 4 4 5 6 6 7 9 9 9 9 11 13 15 17 18 19 20 20 20 21 22 23 23 24 24 25 25 25 25 27 30 33 35 36 37 37 36 35 35 35 35 33 31 28 27 27 26 24 23 22 22 22 22 23 23 24 24 23 23 22
1 2 3 3 5 7 9 10 9 10 11 12 14 15 16 16 17 18 19 20 20 21 22 23 23 24 24 24 24 25 25 25 26 28 30 31 32 33 33 32 32 33 33 32 31 29 27 26 25 24 23 22 22 21 21 21 22 23 24 24 23 22 22
Wind_Direction
298 298 297 296 295 294 293 292 290 289 287 286 286 284 282 278 271 263 258 256 259 261 255 249 249 248 247 247 248 248 250 251 252 253 254 254 254 255 256 257 260 261 260 263 266 267 269 270 269 268 269 269 267 264 261 256 251 248 243 237 234 233 230
296 295 296 296 295 293 293 293 292 290 288 285 284 283 281 277 270 263 258 255 257 261 257 249 246 246 245 245 246 246 247 249 250 251 251 252 253 253 254 256 258 260 260 261 265 267 268 269 269 268 267 268 267 265 262 258 253 249 246 241 236 233 232
295 294 294 294 294 293 292 292 292 291 289 286 283 282 280 276 270 262 257 254 255 259 259 251 245 244 244 244 244 244 245 246 247 248 249 250 251 251 251 254 257 259 260 262 264 266 268 269 269 268 266 266 266 266 264 261 256 251 247 243 239 235 233
296 294 293 293 293 293 292 291 291 290 289 286 283 281 278 275 270 262 255 252 253 257 259 253 246 243 242 242 243 243 243 244 245 246 247 248 249 250 250 253 256 258 260 262 264 267 269 269 269 267 265 264 264 264 264 263 260 255 249 245 242 238 234
295 294 293 293 292 292 292 292 291 290 289 287 283 280 276 273 268 261 253 250 251 255 257 254 248 243 242 241 242 241 241 242 243 244 246 247 247 248 248 251 254 256 258 261 263 266 268 269 270 268 265 263 262 261 263 264 263 259 253 247 244 240 236
295 295 293 291 290 291 292 292 290 289 288 286 283 279 276 272 266 259 252 248 250 255 256 254 249 245 242 241 240 241 240 240 241 242 244 245 246 246 247 248 250 253 255 258 261 264 267 268 269 269 266 263 262 260 260 262 264 262 257 250 245 242 239
295 295 293 290 289 290 291 291 290 288 286 284 281 279 275 271 264 256 250 247 250 255 256 253 249 245 243 242 241 241 241 240 239 240 242 244 245 245 246 247 249 251 253 256 259 263 266 268 268 269 268 264 262 260 259 259 261 262 260 254 247 243 240
294 294 293 290 288 289 290 290 289 287 284 282 280 279 275 270 264 255 247 246 250 255 255 253 249 245 243 243 243 242 242 241 239 239 240 242 243 244 245 246 248 250 252 255 258 261 264 266 268 269 268 265 263 261 259 259 261 262 262 259 252 245 242
292 294 294 291 288 288 289 289 289 286 283 281 280 278 275 269 262 252 245 245 250 254 254 252 250 246 243 244 245 244 242 241 239 238 238 239 241 243 244 245 246 248 251 253 255 259 262 264 266 268 268 265 263 261 260 259 261 263 262 260 256 249 244
291 293 295 293 290 288 287 288 288 286 282 279 279 278 273 266 257 248 243 246 251 252 251 251 249 247 245 244 244 244 242 240 239 238 237 237 239 241 242 243 245 246 249 252 253 256 260 262 264 267 267 266 263 261 260 259 260 262 263 260 257 252 247
290 292 293 292 290 288 286 286 286 285 281 278 277 275 269 261 251 244 243 248 251 251 250 249 248 246 245 244 244 243 242 240 239 239 237 236 237 239 241 242 243 245 247 249 251 254 257 260 262 264 266 266 263 261 260 259 259 261 262 262 258 254 249
290 291 291 289 287 286 285 284 285 283 279 275 274 271 265 254 244 241 244 248 250 251 251 249 247 245 244 245 245 244 243 241 239 239 238 237 237 238 239 240 241 244 246 247 249 251 254 257 259 262 264 264 263 261 259 258 257 259 262 264 262 257 252
289 290 289 288 286 285 284 284 283 281 276 272 269 263 256 248 240 238 244 248 249 250 249 249 248 245 244 244 245 245 243 241 239 239 238 237 236 236 236 238 239 242 244 245 246 249 252 255 256 258 261 262 262 260 258 256 256 258 262 266 265 261 256
290 289 288 287 285 284 283 283 282 278 271 267 263 253 245 243 241 240 242 245 247 248 248 247 247 245 244 243 242 243 243 241 239 239 238 237 236 235 235 236 238 240 242 244 244 246 249 251 252 254 257 259 260 258 256 256 256 257 259 264 265 263 259
292 290 288 287 285 283 282 282 280 274 267 262 256 244 235 238 243 244 244 242 244 246 247 247 246 245 244 242 240 240 241 241 239 238 237 236 235 235 234 234 236 238 241 242 241 242 245 246 248 250 252 255 257 257 255 255 255 255 254 257 262 264 262
292 290 289 288 286 284 283 281 277 271 264 258 248 235 229 234 241 246 247 244 242 244 246 246 245 244 242 241 239 237 237 238 237 236 236 236 234 233 232 232 233 235 238 238 237 237 239 240 242 244 247 251 254 254 253 252 252 252 251 251 256 262 264
292 291 290 288 286 285 283 280 274 267 262 254 240 228 227 234 240 245 248 246 244 244 244 243 243 243 241 239 238 235 234 234 234 234 234 234 233 231 230 229 229 231 233 234 233 234 236 236 238 242 245 247 250 250 250 250 249 249 250 249 250 256 261
293 291 290 288 287 285 282 277 271 265 259 248 232 224 227 235 241 245 248 248 245 242 242 241 240 241 240 238 235 233 231 231 232 232 232 232 231 230 229 227 226 228 230 230 231 232 233 233 235 239 242 244 245 245 246 247 246 246 248 247 247 250 256
295 292 290 288 287 285 280 274 268 262 254 241 226 222 228 236 241 245 248 249 246 242 240 239 237 237 239 237 233 231 230 229 231 231 230 230 230 229 227 224 223 225 227 228 230 232 233 233 233 236 240 242 243 243 242 241 243 245 245 244 245 247 251
295 293 291 289 286 282 278 273 266 257 247 234 224 223 231 238 241 243 246 248 246 242 239 238 235 233 234 234 232 230 228 228 230 230 228 228 229 227 222 219 219 222 224 226 228 229 231 232 232 234 237 240 241 242 239 236 238 242 241 239 241 245 247
295 293 292 289 284 280 276 270 261 248 235 227 223 225 232 239 242 243 243 243 242 240 239 238 235 231 229 229 229 228 226 225 227 228 226 226 225 217 211 212 215 218 221 223 225 227 228 228 229 231 233 235 238 241 241 236 232 235 237 235 236 240 242
295 293 292 289 284 279 273 265 254 238 226 222 223 226 231 238 243 243 241 238 237 238 238 235 231 229 226 225 226 225 223 222 223 224 223 220 211 202 203 209 211 214 218 220 222 225 227 227 230 233 235 236 238 242 243 236 227 227 231 230 231 233 236
294 292 290 287 282 277 269 256 242 229 221 223 227 229 231 238 244 243 238 236 236 236 235 231 227 225 223 222 222 221 219 218 218 220 218 209 198 197 202 207 209 212 216 218 219 222 225 226 229 233 237 240 240 241 241 235 225 223 226 225 225 227 230
294 291 287 283 279 274 262 244 231 224 222 226 230 232 234 237 240 240 237 234 234 233 231 228 223 220 218 217 216 215 214 214 215 214 209 198 193 195 201 206 208 210 212 215 216 219 222 223 224 228 233 237 238 236 235 233 227 223 224 223 222 222 225
295 290 284 279 276 268 253 235 225 223 226 229 232 234 236 234 234 235 236 234 230 228 227 224 219 213 210 210 209 207 207 209 209 203 196 192 190 191 197 204 207 209 211 213 215 216 219 222 222 223 226 230 231 231 231 231 229 225 224 226 227 224 223
296 289 282 277 272 262 244 229 225 225 228 231 234 235 235 232 230 232 235 233 227 222 221 219 213 207 204 203 203 203 202 202 200 192 186 186 187 191 199 205 206 208 211 213 215 217 219 221 221 221 222 225 228 230 229 230 231 229 225 226 228 228 225
296 290 283 277 267 255 238 226 226 229 230 232 234 233 232 230 230 230 233 232 226 219 217 213 207 202 198 194 194 197 196 191 187 183 182 184 188 196 204 206 206 208 210 213 216 217 219 221 221 220 221 224 228 230 228 227 229 229 227 225 224 223 222
297 290 285 278 263 246 235 229 230 233 233 233 232 229 228 228 229 230 230 229 224 218 212 207 200 196 194 188 184 186 187 183 180 181 184 189 195 200 204 206 208 210 212 213 214 216 219 221 220 219 221 223 226 228 228 227 227 227 226 227 224 217 213
300 292 283 273 257 240 234 234 235 235 232 229 227 225 225 226 227 227 225 223 220 213 206 201 196 193 194 191 185 182 183 183 184 186 191 196 200 202 205 208 210 212 214 214 215 219 224 226 221 216 218 221 223 226 229 230 230 228 226 227 226 219 212
300 293 279 261 248 240 236 236 235 232 226 222 222 222 224 224 224 222 218 215 213 206 200 199 197 194 195 194 191 187 186 187 189 193 197 201 203 205 208 211 213 216 219 219 219 223 229 231 226 220 220 223 226 228 229 230 233 234 231 228 227 224 219
295 293 281 259 243 239 238 233 227 223 221 220 219 219 221 221 220 217 214 211 208 204 200 199 198 196 195 195 195 193 192 193 195 198 201 204 206 208 210 213 217 220 223 224 223 225 230 233 231 227 226 228 230 232 231 230 230 234 236 234 230 227 225
284 278 271 258 243 233 230 222 214 214 218 219 217 215 214 213 209 207 205 203 203 202 200 197 197 198 199 199 200 199 198 198 200 203 205 208 210 211 213 215 219 223 225 226 227 229 232 235 235 233 232 233 233 233 233 232 230 229 233 236 235 230 228
272 249 232 232 229 219 211 206 203 206 208 209 208 206 202 198 194 189 186 189 196 200 200 200 201 203 204 206 207 206 204 204 206 208 210 212 214 215 215 217 220 223 226 228 230 231 233 235 236 237 236 235 234 232 232 233 233 231 230 232 234 232 230
281 250 233 221 209 200 194 191 189 185 184 186 185 182 180 179 177 175 178 188 197 201 202 204 206 206 208 209 207 204 204 206 209 213 215 217 219 220 220 221 222 225 228 230 232 232 233 233 233 233 234 233 232 231 230 231 234 234 233 231 231 231 231
258 239 235 208 177 172 166 156 154 155 154 155 159 167 176 181 182 184 188 195 201 203 204 206 208 209 210 210 207 206 207 209 212 216 218 220 222 224 224 223 223 224 226 228 230 231 230 229 227 227 228 229 229 229 229 230 231 234 237 236 232 230 230
167 216 215 177 166 163 142 125 130 149 156 158 162 170 181 189 192 194 198 203 208 210 210 211 213 214 215 215 214 215 216 218 219 219 220 222 223 224 224 222 222 222 224 226 227 227 225 223 223 223 225 228 230 231 232 232 231 232 236 238 237 234 232